This is the latest recevied weather packets stored in our database for station/object HB9EKO-12. If no packets are shown the sender has not sent any weather packets the latest 10 day(s).
| Time | Temp. | Humidity | Pressure | Rain* | Wind** | Luminosity | Snow |
|---|---|---|---|---|---|---|---|
| 1777741676 | 33.33° C | 19% | 1017 hPa | - | - | - | - |
| 1777740771 | 33.33° C | 19% | 1017 hPa | - | - | - | - |
| 1777739866 | 35.56° C | 17% | 1017 hPa | - | - | - | - |
| 1777738961 | 35° C | 17% | 1017 hPa | - | - | - | - |
| 1777738055 | 33.33° C | 19% | 1017 hPa | - | - | - | - |
| 1777737150 | 33.33° C | 19% | 1018 hPa | - | - | - | - |
| 1777736245 | 33.33° C | 20% | 1018 hPa | - | - | - | - |
| 1777735339 | 33.33° C | 20% | 1018 hPa | - | - | - | - |
| 1777734434 | 33.33° C | 21% | 1018 hPa | - | - | - | - |
| 1777733529 | 31.11° C | 21% | 1018 hPa | - | - | - | - |
| 1777732624 | 30° C | 24% | 1018 hPa | - | - | - | - |
| 1777731718 | 29.44° C | 26% | 1019 hPa | - | - | - | - |
| 1777730813 | 28.33° C | 29% | 1019 hPa | - | - | - | - |
| 1777729908 | 27.22° C | 28% | 1019 hPa | - | - | - | - |
| 1777729003 | 26.67° C | 29% | 1019 hPa | - | - | - | - |
| 1777728098 | 26.67° C | 30% | 1020 hPa | - | - | - | - |
| 1777727192 | 26.11° C | 28% | 1020 hPa | - | - | - | - |
| 1777726287 | 26.11° C | 28% | 1020 hPa | - | - | - | - |
| 1777725382 | 26.11° C | 29% | 1020 hPa | - | - | - | - |
| 1777724477 | 25.56° C | 34% | 1020 hPa | - | - | - | - |
| 1777723571 | 25° C | 35% | 1021 hPa | - | - | - | - |
| 1777722666 | 23.89° C | 38% | 1021 hPa | - | - | - | - |
| 1777721761 | 23.33° C | 39% | 1021 hPa | - | - | - | - |
| 1777720856 | 23.89° C | 43% | 1021 hPa | - | - | - | - |
| 1777719951 | 22.22° C | 42% | 1022 hPa | - | - | - | - |
* Rain since midnight (hover to see other rain measurements)
** Current wind speed in m/s (hover to see current wind gust speed)